[[{"header":{"parameterUnit":"m.s-1","parameterCategory":1,"la1":30.2991,"la2":30.254,"lo1":-89.0895,"lo2":-89.0444,"dy":0.0017,"dx":0.0017,"nx":28,"ny":28,"refTime":"2025-12-03T03:00:00:Z","depth":0,"parameterNumber":2,"parameterNumberName":"U-component_of_WINDS"},"data":[0,0,0,0,0,0,0,0,0,0,0,0,0,0,0,0,0,0,0,0,0,0,0,0,0,0,0,0,0,0,0,0,0,0,0,0,0,0,0,0,0,0,0,0,0,0,0,0,0,0,0,0,0,0,0,0,0,0,1.9561,1.9561,0,1.9583,1.9583,1.9584,1.9565,1.9564,1.9563,1.9563,1.9585,1.9586,1.9587,0,0,0,0,0,0,0,0,0,0,0,0,0,1.9504,1.9505,1.9561,1.9561,1.9562,1.9583,1.9583,1.9584,1.9565,1.9564,1.9563,1.9562,1.9584,1.9586,1.9587,0,0,0,0,0,0,0,0,0,0,0,0,0,1.9528,1.9506,1.9561,1.9555,1.9555,1.9583,1.9583,1.9584,1.9565,1.9564,1.9563,1.9562,1.9584,1.9586,1.9588,1.9623,0,0,1.9594,1.9594,0,0,0,0,0,0,0,0,1.9526,1.953,1.9556,1.9555,1.9555,1.957,1.9571,1.9597,1.9565,1.9561,1.9562,1.9561,1.9581,1.9583,1.959,1.9624,1.9625,1.9594,1.9595,1.9596,1.9596,0,0,0,0,0,0,0,1.9525,1.9529,1.957,1.9556,1.9556,1.9551,1.9554,1.9576,1.9577,1.9561,1.956,1.9563,1.958,1.9588,1.959,1.9625,1.9594,1.9596,1.9597,1.9597,1.9692,1.9694,0,0,0,0,0,0,1.9524,1.9528,1.9569,1.957,1.9538,1.9553,1.9556,1.9566,1.9577,1.9577,1.9564,1.9562,1.9585,1.9588,1.9591,1.9634,1.9596,1.9598,1.9599,1.9691,1.9693,1.9694,0,0,0,0,0,0,1.9523,1.9528,1.9568,1.9549,1.9554,1.9556,1.9568,1.9567,1.9575,1.9579,1.9579,1.9571,1.9584,1.9588,1.9616,1.9634,1.9599,1.96,1.9689,1.9692,1.9693,1.972,0,0,0,0,0,0,1.9521,1.9527,1.954,1.9549,1.9555,1.9593,1.9569,1.9569,1.9578,1.9576,1.9586,1.9586,1.9583,1.9613,1.9618,1.9637,1.9602,1.9688,1.969,1.9693,1.9718,1.9723,1.9728,0,0,0,0,0,1.9519,1.9547,1.9541,1.9546,1.9571,1.9594,1.9597,1.9593,1.958,1.9593,1.9596,1.9586,1.9632,1.9616,1.9621,1.9641,1.9687,1.969,1.9693,1.9716,1.9722,1.9728,0,0,0,0,0,0,1.9539,1.9548,1.9542,1.9573,1.9583,1.959,1.9607,1.96,1.9614,1.9611,1.9606,1.9608,1.9638,1.9642,1.9624,1.9677,1.9657,1.9661,1.9673,1.9679,1.9684,1.9682,1.9604,0,0,0,0,0,1.9548,1.9565,1.9571,1.9598,1.9604,1.9605,1.9614,1.9611,1.9621,1.9625,1.963,1.964,1.9657,1.9668,1.9684,1.9719,1.9721,1.9735,1.974,1.9744,1.9748,1.9768,1.9774,1.9704,1.9704,1.9704,0,0,1.9565,1.9571,1.9582,1.9603,1.961,1.9629,1.9608,1.9629,1.9643,1.9628,1.9655,1.9659,1.967,1.9702,1.9717,1.9707,1.9768,1.9748,1.9751,1.9752,1.9772,1.9778,1.9784,1.9706,1.9706,1.9705,0,0,1.9605,1.9612,1.9635,1.9644,1.9655,1.9656,1.9662,1.9671,1.9674,1.9701,1.9691,1.9708,1.9737,1.9746,1.9754,1.98,1.9792,1.9806,1.9831,1.9851,1.9856,1.9861,1.9879,1.9885,1.9809,1.9809,1.9809,0,1.9625,1.9652,1.9649,1.967,1.968,1.9669,1.9693,1.9701,1.9718,1.9725,1.9714,1.9751,1.9758,1.9792,1.9804,1.9811,1.9818,1.9804,1.9856,1.9861,1.9865,1.9882,1.9888,1.9811,1.9811,1.9811,1.981,0,1.9676,1.9696,1.9714,1.9731,1.9742,1.9765,1.9766,1.9778,1.9775,1.9777,1.9806,1.9814,1.9831,1.9839,1.9835,1.9874,1.9868,1.9856,1.9836,1.9874,1.9889,1.9896,1.9813,1.9813,1.9812,1.9812,0,0,1.9729,1.9745,1.9751,1.976,1.9773,1.9788,1.9811,1.9829,1.984,1.9853,1.9872,1.9898,1.9889,1.9898,1.9895,1.9913,1.995,1.9899,1.99,1.9909,1.9995,2.0004,2.0011,1.9945,1.9946,1.9947,1.9994,0,1.977,1.9811,1.9809,1.9847,1.9866,1.9856,1.9877,1.9888,1.9891,1.9908,1.9911,1.993,1.9915,1.9921,1.9938,1.9942,1.9968,1.9939,1.9964,1.9965,1.9962,2.0019,2.0028,2.0072,2.0,2.0001,2.0002,0,1.9824,1.9839,1.9879,1.9891,1.9899,1.9917,1.9934,1.995,1.9963,1.9964,1.9976,1.9971,1.9995,1.9975,2.001,1.999,2.0001,2.0005,2.0006,2.0008,1.9986,2.0023,2.0085,2.0092,2.0011,2.0011,2.001,0,1.986,1.9889,1.9918,1.9925,1.9939,1.9953,1.9959,1.9971,1.9982,1.9998,2.0005,2.0023,2.0033,2.0047,2.0048,2.0033,2.0083,2.0062,2.0085,2.0085,2.0096,2.0095,2.0161,2.0102,2.0102,2.0102,2.0102,0,1.9906,1.9931,1.9934,1.9951,1.998,1.9978,2.0006,2.0012,2.0022,2.0041,2.0034,2.0052,2.0051,2.007,2.007,2.0099,2.0104,2.0106,2.0106,2.0107,2.0107,2.0114,2.0111,2.0104,2.0103,2.0103,2.0103,0,1.995,1.9953,1.9983,1.9995,1.9999,2.0019,2.003,2.0047,2.005,2.0074,2.008,2.0085,2.0107,2.0109,2.0133,2.0134,2.0169,2.0166,2.0165,2.0165,2.0188,2.0186,2.026,2.0271,2.0205,2.0205,2.0206,0,1.998,1.9999,2.0014,2.0026,2.0034,2.0053,2.0065,2.0065,2.0078,2.0095,2.0111,2.0132,2.0148,2.0184,2.019,2.0209,2.0206,2.0231,2.0209,2.021,2.0208,2.0207,2.0209,2.0235,2.0236,2.0237,2.0237,0,2.0033,2.0034,2.0051,2.007,2.0085,2.01,2.0114,2.0124,2.0126,2.0141,2.0164,2.0177,2.0203,2.0224,2.0244,2.0251,2.0245,2.0244,2.0251,2.0252,2.0251,2.0253,2.0177,2.0243,2.0242,2.0242,2.0241,2.0241,2.0071,2.0088,2.0102,2.0122,2.0133,2.0147,2.0164,2.017,2.0188,2.021,2.0209,2.0234,2.0248,2.0273,2.0282,2.0302,2.0294,2.0303,2.0305,2.0308,2.0311,2.0248,2.0306,2.0306,2.0305,2.0305,2.0305,0,2.0124,2.0133,2.0152,2.0172,2.0189,2.0182,2.0197,2.0212,2.0234,2.0247,2.0264,2.0291,2.0312,2.0321,2.0342,2.0356,2.0354,2.0362,2.0361,2.0363,2.0316,2.0309,2.0363,2.0363,2.0363,2.0363,2.0363,2.0363,2.0154,2.0183,2.0186,2.0221,2.023,2.0254,2.0264,2.0277,2.0288,2.0318,2.0336,2.0341,2.0353,2.0376,2.0395,2.0397,2.0406,2.0415,2.0416,2.0372,2.0366,2.0361,2.0354,2.0417,2.0417,2.0461,2.0461,2.0462]},{"header":{"parameterUnit":"m.s-1","parameterCategory":1,"la1":30.2991,"la2":30.254,"lo1":-89.0895,"lo2":-89.0444,"dy":0.0017,"dx":0.0017,"nx":28,"ny":28,"refTime":"2025-12-03T03:00:00:Z","depth":0,"parameterNumber":3,"parameterNumberName":"V-component_of_WINDS"},"data":[0,0,0,0,0,0,0,0,0,0,0,0,0,0,0,0,0,0,0,0,0,0,0,0,0,0,0,0,0,0,0,0,0,0,0,0,0,0,0,0,0,0,0,0,0,0,0,0,0,0,0,0,0,0,0,0,0,0,-6.0121,-6.0122,0,-6.0226,-6.0227,-6.0229,-6.0216,-6.0214,-6.0213,-6.0211,-6.0313,-6.0317,-6.0321,0,0,0,0,0,0,0,0,0,0,0,0,0,-5.9903,-5.9907,-6.012,-6.0122,-6.0123,-6.0226,-6.0227,-6.0229,-6.0216,-6.0214,-6.0212,-6.021,-6.0312,-6.0317,-6.0322,0,0,0,0,0,0,0,0,0,0,0,0,0,-6.0002,-5.9909,-6.012,-6.0129,-6.0131,-6.0226,-6.0228,-6.0229,-6.0217,-6.0214,-6.0212,-6.0209,-6.031,-6.0316,-6.0323,-6.0413,0,0,-6.0342,-6.0345,0,0,0,0,0,0,0,0,-5.9996,-6.001,-6.0127,-6.0129,-6.0131,-6.0206,-6.0188,-6.0291,-6.0217,-6.0184,-6.0211,-6.0208,-6.0279,-6.0288,-6.0313,-6.0417,-6.0422,-6.0343,-6.0347,-6.0349,-6.0351,0,0,0,0,0,0,0,-5.999,-6.0005,-6.0162,-6.0128,-6.0131,-6.0127,-6.0138,-6.0208,-6.0244,-6.0187,-6.0186,-6.0199,-6.028,-6.0307,-6.0315,-6.0423,-6.0343,-6.0348,-6.0352,-6.0355,-6.0609,-6.0611,0,0,0,0,0,0,-5.9981,-6.0,-6.0159,-6.0165,-6.0056,-6.0133,-6.0145,-6.0184,-6.0243,-6.025,-6.0201,-6.0198,-6.0297,-6.0308,-6.0319,-6.0429,-6.0349,-6.0355,-6.0359,-6.0606,-6.0609,-6.0612,0,0,0,0,0,0,-5.9977,-5.9995,-6.0154,-6.0082,-6.0102,-6.0139,-6.0183,-6.0188,-6.0215,-6.0254,-6.026,-6.0223,-6.0295,-6.031,-6.039,-6.0432,-6.0358,-6.0364,-6.0602,-6.0607,-6.0611,-6.065,0,0,0,0,0,0,-5.997,-5.9994,-6.0029,-6.0083,-6.0106,-6.0226,-6.0185,-6.0191,-6.0227,-6.0224,-6.0276,-6.0282,-6.0295,-6.0381,-6.0397,-6.044,-6.0369,-6.0599,-6.0604,-6.061,-6.0645,-6.0655,-6.0664,0,0,0,0,0,-5.9963,-6.0034,-6.0031,-6.005,-6.0152,-6.0228,-6.0241,-6.0256,-6.023,-6.0266,-6.0291,-6.028,-6.0426,-6.0389,-6.0407,-6.0453,-6.0596,-6.0603,-6.0609,-6.0641,-6.0653,-6.0664,0,0,0,0,0,0,-5.9981,-6.0042,-6.0039,-6.013,-6.0175,-6.0226,-6.0271,-6.0268,-6.0318,-6.0313,-6.0327,-6.0339,-6.0421,-6.0445,-6.0403,-6.0544,-6.0507,-6.0517,-6.0525,-6.0537,-6.0547,-6.0539,-6.0374,0,0,0,0,0,-5.9997,-6.0056,-6.0104,-6.018,-6.0203,-6.0234,-6.0267,-6.0275,-6.032,-6.0338,-6.037,-6.0413,-6.0468,-6.0504,-6.0557,-6.0649,-6.066,-6.0689,-6.0699,-6.0706,-6.0715,-6.0766,-6.078,-6.0634,-6.0634,-6.0634,0,0,-6.0028,-6.0068,-6.0104,-6.0185,-6.022,-6.028,-6.0249,-6.0312,-6.0356,-6.0347,-6.0426,-6.0451,-6.05,-6.0587,-6.0627,-6.0609,-6.0758,-6.0715,-6.072,-6.0725,-6.0774,-6.0788,-6.08,-6.0638,-6.0637,-6.0637,0,0,-6.0116,-6.0152,-6.022,-6.0257,-6.0312,-6.0332,-6.0349,-6.0401,-6.0418,-6.0498,-6.0493,-6.0545,-6.064,-6.0675,-6.0705,-6.081,-6.0802,-6.0826,-6.0875,-6.0925,-6.0936,-6.0946,-6.0984,-6.0997,-6.0835,-6.0835,-6.0835,0,-6.0147,-6.0238,-6.0255,-6.0321,-6.0357,-6.0354,-6.0423,-6.0457,-6.0525,-6.055,-6.053,-6.0651,-6.0683,-6.0779,-6.0805,-6.083,-6.0848,-6.082,-6.0934,-6.0944,-6.0954,-6.099,-6.1004,-6.0838,-6.0837,-6.0837,-6.0837,0,-6.0274,-6.0337,-6.0386,-6.0455,-6.0497,-6.0563,-6.059,-6.0629,-6.0634,-6.0656,-6.0738,-6.0778,-6.0839,-6.0863,-6.0866,-6.096,-6.0947,-6.0931,-6.0894,-6.097,-6.1004,-6.1018,-6.0841,-6.084,-6.084,-6.0839,0,0,-6.0374,-6.0455,-6.0472,-6.0505,-6.0566,-6.0615,-6.0681,-6.0744,-6.0778,-6.0826,-6.0882,-6.0964,-6.0949,-6.0984,-6.0992,-6.1036,-6.1117,-6.1014,-6.1015,-6.1032,-6.1222,-6.1235,-6.125,-6.1112,-6.1115,-6.1117,-6.1218,0,-6.0468,-6.0589,-6.0607,-6.0713,-6.0772,-6.0771,-6.0829,-6.0873,-6.0896,-6.0948,-6.0972,-6.103,-6.1006,-6.1028,-6.1071,-6.1098,-6.1155,-6.1091,-6.1163,-6.1166,-6.1151,-6.1268,-6.1281,-6.1374,-6.1232,-6.1234,-6.1236,0,-6.0593,-6.0647,-6.076,-6.0815,-6.0841,-6.0893,-6.0953,-6.1003,-6.1053,-6.1066,-6.1107,-6.111,-6.1178,-6.114,-6.1234,-6.119,-6.122,-6.1238,-6.1242,-6.1249,-6.1205,-6.1278,-6.1404,-6.1418,-6.1256,-6.1255,-6.1253,0,-6.0655,-6.0756,-6.0837,-6.0865,-6.0931,-6.0968,-6.0997,-6.1045,-6.1082,-6.1134,-6.1158,-6.1217,-6.1248,-6.1293,-6.1312,-6.1282,-6.1405,-6.1368,-6.1417,-6.1417,-6.1442,-6.1441,-6.1576,-6.1463,-6.1463,-6.1462,-6.1462,0,-6.0758,-6.0826,-6.0867,-6.0916,-6.0993,-6.1014,-6.1089,-6.1117,-6.1159,-6.1213,-6.1216,-6.1266,-6.1288,-6.1342,-6.1357,-6.1433,-6.1447,-6.1459,-6.1462,-6.1459,-6.1457,-6.1478,-6.1472,-6.1466,-6.1465,-6.1465,-6.1464,0,-6.084,-6.087,-6.0958,-6.1015,-6.1031,-6.1086,-6.1134,-6.1181,-6.1205,-6.1273,-6.1291,-6.1327,-6.139,-6.1414,-6.149,-6.15,-6.1588,-6.1586,-6.1573,-6.1573,-6.1622,-6.1617,-6.1775,-6.1797,-6.167,-6.1671,-6.1672,0,-6.0903,-6.0957,-6.1021,-6.1059,-6.109,-6.115,-6.119,-6.1212,-6.1253,-6.1314,-6.1354,-6.1419,-6.1471,-6.1572,-6.1604,-6.1662,-6.1661,-6.1713,-6.167,-6.1666,-6.1662,-6.1659,-6.1665,-6.172,-6.1722,-6.1723,-6.1724,0,-6.1012,-6.1025,-6.1083,-6.1147,-6.1194,-6.1245,-6.1294,-6.1324,-6.1354,-6.1399,-6.1465,-6.1506,-6.1586,-6.1649,-6.1711,-6.1738,-6.1736,-6.1737,-6.1752,-6.1749,-6.1739,-6.1745,-6.1594,-6.1733,-6.1732,-6.1732,-6.1731,-6.1731,-6.1087,-6.1135,-6.1189,-6.1254,-6.1294,-6.134,-6.1388,-6.142,-6.1476,-6.1545,-6.1554,-6.1626,-6.1674,-6.1757,-6.1788,-6.1843,-6.1829,-6.185,-6.1855,-6.186,-6.1864,-6.1731,-6.1854,-6.1854,-6.1853,-6.1853,-6.1853,0,-6.1197,-6.1232,-6.1292,-6.1362,-6.1413,-6.141,-6.1464,-6.1506,-6.157,-6.1617,-6.167,-6.1746,-6.1809,-6.1847,-6.1909,-6.1946,-6.1946,-6.1961,-6.1958,-6.1965,-6.1873,-6.1854,-6.196,-6.196,-6.196,-6.196,-6.196,-6.196,-6.126,-6.1342,-6.1362,-6.1463,-6.1497,-6.157,-6.1601,-6.1644,-6.1682,-6.1769,-6.1822,-6.1847,-6.1891,-6.1956,-6.2013,-6.2022,-6.2045,-6.2061,-6.2069,-6.1982,-6.1971,-6.1961,-6.1943,-6.2066,-6.2066,-6.2157,-6.2158,-6.2159]}]]